Helicity
99 118 94 74 85 78 81 68 59 67 46 47 45 69 69 75 40 2 1 21 19 25 36 23 26 28 46 57 53 71 45 57 66 60 67 76 96 100 112 122 127 109 112 125
108 99 58 59 73 79 77 72 54 41 29 30 38 60 22 25 24 29 28 22 21 10 14 21 37 43 38 66 75 73 74 81 93 70 75 94 96 87 108 130 160 142 120 135
77 63 53 56 51 51 31 35 43 27 21 25 24 25 48 31 21 19 31 40 33 49 13 21 26 43 63 78 82 81 89 113 133 118 94 102 102 103 110 122 130 113 117 126
69 36 42 37 30 29 41 17 19 7 11 26 31 15 43 37 -19 2 -22 23 86 75 73 57 56 59 73 73 72 66 63 95 103 127 106 90 80 83 103 94 115 138 94 83
27 33 30 28 18 26 3 30 22 24 31 37 44 65 22 10 2 8 -12 -2 45 32 53 56 84 94 83 81 62 58 47 73 98 109 97 99 75 80 61 117 118 125 50 77
22 20 22 20 22 26 27 51 73 55 37 41 46 63 1 22 34 15 -17 -3 28 34 61 77 81 83 82 78 64 52 54 66 84 106 102 98 82 71 35 32 99 92 37 44
9 19 23 10 24 22 -20 17 11 20 36 18 48 31 33 5 35 13 -18 -27 12 47 63 76 75 80 87 79 72 69 65 61 81 84 93 87 80 68 45 13 -20 89 62 34
10 -2 -7 14 8 16 -1 -8 -2 -28 -36 18 70 11 2 32 5 2 -25 -30 -14 18 49 68 82 90 95 92 85 81 65 60 79 92 79 76 66 80 58 21 12 54 64 78
-12 0 14 21 23 30 12 15 24 55 39 17 -7 -11 3 -6 -57 -49 -28 -6 -6 15 32 58 82 108 114 111 98 96 75 56 58 86 95 77 71 42 51 23 1 2 1 44
7 13 0 -1 23 32 20 49 30 36 4 29 27 7 8 -1 -4 -2 10 32 16 16 43 62 93 105 124 125 111 100 83 64 50 50 66 73 62 54 35 36 22 -3 -15 -17
11 -1 5 3 25 47 58 45 48 54 78 42 6 8 39 27 16 47 42 64 71 58 31 88 85 107 126 137 135 113 96 73 52 49 50 60 63 51 45 40 21 11 -2 -19
1 9 18 35 42 60 55 71 114 89 66 106 122 80 33 27 16 43 22 38 54 91 81 82 77 92 131 137 126 112 104 86 67 56 51 61 59 57 48 44 14 7 5 -15
25 14 -12 14 37 78 81 111 161 184 172 208 135 27 98 59 33 58 62 63 89 107 61 58 67 67 97 125 105 114 109 85 77 66 59 55 48 44 49 43 34 24 9 -1
63 39 30 38 -7 44 94 109 161 213 183 176 418 245 200 73 29 70 127 104 66 29 3 18 11 43 69 104 117 116 106 106 94 86 73 60 56 57 57 51 44 34 32 33
41 5 -2 26 17 38 105 112 163 274 269 167 131 133 228 150 108 101 27 19 -17 -7 -35 6 16 4 3 76 131 134 123 130 113 99 81 65 55 43 31 24 26 34 47 51
107 -9 -44 -47 -52 -41 3 97 114 153 161 177 243 159 201 150 36 89 165 79 18 -27 -48 -31 41 38 50 76 100 138 131 142 153 124 100 88 93 87 76 70 70 65 42 27
137 81 60 -27 -32 -122 -55 13 57 110 153 68 118 164 2 59 70 82 55 86 105 65 26 0 39 44 34 80 147 170 158 197 180 153 120 115 105 88 76 66 65 61 59 62
250 207 142 84 61 45 78 102 134 183 146 160 91 65 93 107 116 106 48 -9 -25 56 135 81 70 53 19 66 105 157 210 218 214 186 154 142 132 108 98 88 73 65 64 71
229 274 189 148 122 28 62 82 73 69 64 51 105 103 121 79 47 25 -83 -64 -24 27 93 99 107 70 63 71 85 137 205 254 260 200 186 182 177 156 136 115 97 89 90 75
165 164 244 255 165 93 92 128 102 14 73 131 87 29 7 -35 -60 -99 -138 -47 1 83 128 118 96 79 92 88 100 155 193 263 263 197 218 230 210 181 160 137 131 126 114 90
184 182 193 207 223 119 93 108 86 95 94 110 65 -2 -33 -40 38 1 18 34 76 110 97 134 139 125 115 102 130 147 187 228 191 232 262 253 235 217 190 175 163 145 136 133
119 168 208 241 304 99 152 141 33 63 92 8 -42 -83 -27 68 71 37 -19 -9 21 59 76 117 147 112 120 120 158 153 180 170 218 249 256 267 265 257 242 216 191 174 170 151
197 199 189 221 185 181 141 108 71 86 57 25 37 42 -20 -49 -7 -34 9 34 41 95 120 70 124 119 131 166 192 180 137 213 255 282 263 267 286 280 269 247 222 214 181 167
216 159 277 330 261 167 156 84 56 70 41 -44 -46 -6 17 32 42 58 68 71 88 91 110 114 132 167 134 170 210 188 174 221 264 257 275 293 307 285 279 262 235 224 207 178
245 198 178 216 178 144 124 82 37 46 48 38 61 75 73 67 71 91 96 93 99 110 106 111 150 165 140 147 172 160 174 243 235 238 281 316 318 302 287 254 231 209 178 183
301 269 230 200 87 112 125 122 123 129 104 76 60 55 75 76 89 86 89 86 91 86 82 96 131 171 160 162 171 158 182 210 227 256 304 327 334 333 302 286 258 168 151 119
Wind_Speed
36 35 40 39 40 40 45 54 61 57 53 63 54 70 70 58 37 35 38 39 42 43 39 39 39 46 51 56 65 67 78 78 78 76 74 69 66 70 73 74 75 79 76 73
36 36 36 38 39 43 47 54 56 51 47 60 58 72 47 35 33 34 35 33 30 31 32 37 41 48 56 57 59 67 71 73 74 70 68 64 63 62 67 70 74 73 71 68
33 32 34 37 40 46 47 47 50 53 61 46 58 45 35 32 34 32 27 23 23 24 37 38 47 49 43 44 50 46 52 54 52 54 63 64 59 61 65 60 63 62 61 62
30 28 31 34 38 40 48 40 49 55 56 47 48 48 35 30 35 34 40 23 13 19 8 11 4 10 30 39 48 52 53 57 57 58 59 59 62 65 55 50 57 59 55 56
31 28 31 36 38 39 41 45 47 46 41 44 38 40 32 24 21 31 35 31 14 15 7 2 11 22 31 40 47 56 57 62 61 56 55 56 56 56 46 38 46 48 40 41
30 31 32 32 35 35 39 41 43 36 36 37 32 34 16 17 19 24 23 18 10 10 9 9 15 23 30 37 43 52 57 61 61 57 54 56 55 52 44 37 49 40 35 34
34 29 30 4 33 24 35 42 41 38 38 38 31 19 23 28 29 25 24 13 8 11 13 16 20 27 31 33 37 43 52 57 58 58 52 51 51 46 40 37 32 35 33 30
32 30 30 23 23 22 41 39 19 41 33 36 30 22 20 26 23 16 11 6 7 13 18 19 21 24 24 27 33 38 43 50 52 53 51 48 47 43 40 38 43 36 31 29
28 29 31 26 31 34 22 40 35 39 42 42 18 17 35 17 24 13 9 19 22 25 28 25 24 25 25 27 31 35 39 43 48 47 47 47 45 45 40 39 36 40 17 26
28 25 27 27 23 10 22 28 27 30 23 26 38 10 12 20 17 17 18 23 28 36 40 39 31 26 25 26 31 33 35 36 41 43 43 42 42 42 40 40 36 31 29 28
26 27 25 24 23 21 24 22 26 26 24 21 11 14 17 14 12 15 20 21 27 36 48 38 41 29 24 26 26 27 27 29 32 34 37 39 38 38 38 36 34 34 31 29
25 24 23 21 21 23 20 19 20 21 20 19 27 10 25 20 22 26 24 30 30 35 35 33 29 26 18 14 11 10 15 15 16 18 23 28 34 36 36 35 31 28 27 25
24 19 19 17 25 24 13 13 13 24 29 7 6 7 35 37 39 41 41 33 30 27 20 18 19 12 8 4 4 2 5 6 12 15 17 20 22 25 30 32 30 29 27 25
23 15 20 22 18 11 10 5 2 8 15 18 32 41 41 49 62 48 26 22 22 31 34 15 11 12 9 5 5 2 2 6 9 12 14 15 18 21 22 24 25 26 27 26
12 23 25 33 38 36 38 36 27 28 30 30 33 36 52 47 52 52 45 43 44 47 43 9 13 16 11 10 6 5 2 3 6 8 9 11 14 17 19 21 23 23 23 23
15 10 2 26 22 11 28 32 32 36 40 44 54 63 58 60 58 60 54 48 52 41 33 18 32 46 45 23 10 10 9 7 4 3 4 7 11 13 15 16 18 20 21 23
21 13 32 12 18 34 30 8 2 4 11 19 28 35 42 54 54 67 60 67 74 60 23 21 38 56 54 39 20 12 11 6 5 4 4 6 9 11 14 16 17 17 18 20
31 26 31 26 62 33 34 36 32 17 15 12 19 21 22 32 27 77 75 71 86 86 56 44 45 64 68 60 38 24 17 14 13 13 12 11 12 13 15 17 19 20 22 21
24 24 36 40 43 49 60 37 37 35 56 30 9 15 34 63 72 70 65 70 86 89 85 54 59 68 68 62 52 36 27 22 22 21 19 17 16 16 17 19 22 25 26 27
27 28 28 43 47 50 52 46 45 49 65 34 28 47 68 77 97 94 91 89 92 86 76 66 71 73 68 64 54 43 34 28 27 23 21 20 19 19 21 23 26 28 28 31
39 35 24 31 48 50 50 35 50 57 53 47 52 68 81 89 87 104 99 99 94 95 84 70 69 70 65 60 51 47 41 36 29 27 24 24 24 24 24 23 27 30 31 31
46 43 40 38 47 67 31 41 47 59 66 74 92 97 99 88 92 96 101 103 102 101 89 83 83 75 65 56 50 49 44 40 35 32 31 29 28 27 26 28 30 31 31 33
63 46 55 41 47 54 50 61 70 84 95 99 99 92 91 91 97 107 105 93 82 75 89 89 83 79 70 58 51 53 53 45 38 36 36 35 33 32 30 29 30 31 31 33
56 58 66 71 65 72 78 89 93 88 88 95 101 112 110 111 107 102 96 94 88 80 76 78 77 73 75 66 56 54 56 48 43 42 39 36 34 32 32 31 31 32 30 31
65 72 79 87 89 95 83 84 101 109 106 109 107 105 107 109 109 106 102 97 90 88 86 82 79 76 76 70 57 53 49 42 41 39 38 35 33 32 32 34 31 29 30 30
68 76 83 104 95 102 106 104 104 113 113 105 106 107 103 101 103 102 102 97 94 93 93 90 86 85 84 72 65 61 53 50 49 47 43 39 36 34 34 32 32 33 31 30
Wind_Direction
309 313 310 319 324 325 321 314 312 317 324 321 323 316 318 323 334 337 340 344 344 346 360 2 6 359 358 357 351 352 344 345 340 339 341 341 335 322 310 300 294 288 284 278
312 312 318 322 326 325 323 317 317 324 330 326 325 316 332 348 351 351 352 356 7 14 22 13 8 2 360 5 8 2 355 355 353 349 347 346 342 336 322 308 295 289 282 278
315 321 326 326 327 324 324 323 325 324 325 332 328 329 338 349 354 1 10 27 32 25 9 13 2 4 17 19 15 16 13 10 11 8 358 352 349 344 335 320 302 292 284 279
337 342 340 339 334 339 327 337 331 325 327 326 340 327 335 346 349 359 336 34 76 44 128 205 206 34 23 17 13 11 12 9 9 8 6 5 358 353 351 338 311 294 289 282
335 344 340 334 336 340 335 338 334 334 335 334 344 342 354 5 22 4 353 24 106 182 161 103 34 23 18 13 11 9 10 9 10 13 15 14 10 8 9 7 337 307 302 296
342 340 342 343 346 352 348 347 346 348 347 344 3 7 153 75 65 47 179 183 115 83 60 34 20 15 13 12 12 11 12 11 13 17 20 20 20 21 29 20 324 331 318 309
341 350 347 154 355 60 276 312 343 346 342 337 12 45 156 159 167 172 213 197 88 52 31 18 12 11 13 14 15 15 14 15 17 20 25 27 31 36 50 53 47 292 319 316
342 333 161 89 93 93 319 324 341 298 247 242 5 125 77 148 160 142 160 144 72 37 20 9 8 10 15 17 17 18 18 19 22 25 29 34 40 48 59 67 56 15 327 288
225 195 349 30 6 2 73 331 10 355 336 293 48 173 244 198 194 175 94 43 33 24 17 12 10 11 12 14 16 18 19 20 25 31 35 40 47 56 68 81 91 60 157 267
152 185 169 175 99 18 139 76 60 26 229 217 292 176 122 37 58 46 35 24 17 11 7 7 7 6 10 12 14 16 19 21 24 32 38 44 52 60 72 81 96 116 147 191
131 146 157 149 126 103 65 74 64 68 82 84 174 170 55 75 60 26 14 11 5 360 359 357 358 1 2 7 12 18 23 27 30 36 39 45 53 61 70 82 94 98 117 142
146 139 172 144 111 84 107 104 88 68 65 56 17 201 23 34 23 7 359 349 345 342 341 348 352 355 357 3 19 35 39 51 60 64 62 59 55 58 65 73 87 100 114 125
82 98 197 82 40 33 83 66 53 14 2 38 150 156 358 358 356 351 344 337 331 329 308 337 353 345 336 274 218 80 79 94 72 74 75 75 79 77 69 67 72 79 89 97
41 117 174 200 203 61 195 170 147 189 208 219 224 250 248 260 273 273 312 304 304 274 264 281 296 337 322 271 242 232 114 74 72 77 78 81 80 78 80 80 76 73 70 70
97 211 213 231 242 243 245 242 230 227 225 230 252 246 259 264 269 272 271 272 269 270 263 332 353 356 324 328 280 252 218 93 107 104 101 94 87 83 78 72 69 70 74 76
26 203 307 253 244 228 250 248 239 233 233 240 247 256 260 261 268 280 280 277 273 261 257 267 352 349 349 341 279 235 220 201 149 116 94 81 70 64 66 74 75 64 55 49
346 351 349 286 354 270 259 12 62 357 328 241 246 245 253 263 268 287 284 293 306 281 283 317 340 340 343 344 328 265 255 294 291 304 338 7 21 26 29 34 37 43 44 38
323 333 337 328 328 343 351 344 335 315 324 259 263 255 246 250 297 310 317 322 308 319 333 329 330 331 331 332 337 325 305 294 296 298 306 318 332 344 356 1 2 5 7 11
313 322 331 333 333 296 319 349 348 344 329 330 295 330 337 327 322 323 328 327 321 317 316 321 321 322 325 326 328 324 313 298 294 291 290 297 305 317 328 334 341 344 346 348
327 313 317 326 327 331 328 332 338 338 326 343 346 333 326 325 313 311 317 319 319 320 321 316 315 317 319 321 323 320 311 298 289 282 284 293 298 304 313 322 328 333 337 336
325 321 290 304 319 323 326 327 334 330 332 333 331 327 323 318 315 311 313 314 315 315 316 319 315 315 315 318 320 317 312 298 283 292 294 293 295 298 305 314 319 323 326 331
316 317 316 316 316 320 340 339 330 328 325 322 317 318 317 318 316 318 316 314 312 310 310 313 314 314 314 314 314 314 311 305 298 293 294 291 290 295 300 304 311 316 319 323
306 307 309 307 312 319 323 317 318 318 314 314 314 319 319 318 316 314 315 319 320 320 309 309 311 312 312 309 307 307 309 307 299 292 291 290 291 292 294 297 303 309 313 316
308 307 302 305 307 307 308 307 311 315 315 315 315 311 312 311 313 314 315 316 316 316 314 313 313 310 311 309 304 302 307 304 299 293 289 289 287 286 288 292 298 302 307 312
304 311 308 302 305 305 307 311 311 309 311 312 312 312 312 310 310 311 312 313 314 313 312 311 309 307 307 308 305 304 304 301 297 292 288 284 281 279 283 288 291 296 304 309
301 303 301 300 307 305 306 310 311 310 310 312 313 313 314 314 312 311 311 312 312 312 312 310 307 305 304 303 302 303 302 300 295 292 289 282 280 280 281 283 291 299 304 308